Location: Newark
(34.9500°N, 139.9667°E)
Time: 19:36:42
(UTC+00:00)

Altair - Pass Details

Date: 16 December 2019
Orbit: 1502 x 1682 km, 47.2° (Epoch: 22 January)

Event Time Altitude Azimuth Distance (km) Brightness Sun altitude
Rises 12:35:57 0° 280° (W) 4,782 10.5 -61.5°
Reaches altitude 10° 12:39:25 10° 288° (WNW) 3,770 9.8 -62.2°
Enters shadow 12:40:12 13° 291° (WNW) 3,553 9.6 -62.4°
